RISESAT (43934 NORAD) Tracking and Keplerian Element Data

This shows tracking and keplerian element data for the satellite.

Feedback or suggestion? Click here.




ElementValue
Catalog43934
NameRISESAT
Epoch Orbit452
Epoch Day47.81961946
Epoch Year2019
RAAN109.2207
Inclination97.2994
Eccentricity0.0017739
Argument of Perigee140.428
Mean Anonmoly330.2349
Mean Motion15.21674495
Decay Rate3.34E-06
L11 43934U 19003C 19047.81961946 .00000334 00000-0 17729-4 0 9991
L22 43934 97.2994 109.2207 0017739 140.4280 330.2349 15.21674495 4521

Live tracking and technical data element details for RISESAT (NORAD 43934). RISESAT can be tracked NOW for your location showing map with azimuth and elevation plus other details from your city location.

Track the satellite on the map from your city or location and see movement details for azimuth, elevation, latitude, longitude, range, height, and movement on the map or in text.







IsCatalogInMostPopularTable: catalog: 43934, numindb: 16
Update: records affected: 1



GetName: 43934 RISESAT

Hit Count: updated at: Thu, 21 Feb 2019 12:39:59 GMT